User: anonymous   Login
Location: Unspecified
(0.0000°N, 0.0000°E)
Time: 09:19:17
(UTC+00:00)
Language:

CBERS-4 - Orbit

View from above orbital plane
View from above orbital plane
View from above satellite
View from above satellite

Ground track
Ground track

The orbit data is extracted from the following two-line orbital elements,

1 40336U 14079A   18019.08226220 -.00000031  00000-0  41345-5 0  9995
2 40336  98.4325  94.2070 0001740 101.3581 258.7794 14.35474489163384
Epoch (UTC): 19 January 2018 01:58:27
Eccentricity: 0.0001740
inclination: 98.4325°
perigee height: 772 km
apogee height: 775 km
right ascension of ascending node: 94.2070°
argument of perigee: 101.3581°
revolutions per day: 14.35474489
mean anomaly at epoch: 258.7794°
orbit number at epoch: 16338

The dashed part of the orbit path shows where the satellite is in the earth's shadow,  

DLR